Home   Weather   Burleson   Past weeks
Flag for USA

Past Weather in Burleson, Texas, USA — Yesterday and Last 2 Weeks

Now
73 °F

Sunny.


Feels Like: 77 °F
Forecast: 84 / 63 °F
Wind: 6 mph from North

Location: Burleson-Rendon

Current Time: May 19, 2019 at 11:37:17 am

Latest Report: May 19, 2019 at 10:50 am


Visibility: 10 mi

Pressure: 29.94 "Hg

Humidity: 57%

Dew Point: 57 °F

Location of BurlesonLocation

Past Weather in Burleson — Graph

°F

Burleson Temperature Yesterday

Maximum temperature yesterday: 77 °F (at 12:15 am)
Minimum temperature yesterday: 68 °F (at 1:51 pm)
Average temperature yesterday: 74 °F

High & Low Weather Summary for the Past Weeks

 TemperatureHumidityPressure
High86 °F (May 15, 3:53 pm)100% (May 8, 11:47 am)30.13 "Hg (May 8, 11:47 am)
Low50 °F (May 10, 6:45 am)37% (May 13, 3:48 pm)29.65 "Hg (May 18, 3:55 pm)
Average67 °F82%29.91 "Hg
* Reported May 4 9:46 am — May 19 9:46 am, Burleson. Weather by CustomWeather, © 2019

Note: Actual official high and low records may vary slightly from our data, if they occured in-between our weather recording intervals... More about our weather records

Advertising

Burleson Weather History for the Previous 24 Hours

Scroll right to see more
 ConditionsComfort  
Time TempWeatherWind HumidityBarometerVisibility
9:46 am
Sun, May 19
72 °FSunny.10 mph61%29.92 "Hg10 mi
8:50 am68 °FSunny.7 mph69%29.90 "Hg10 mi
7:55 am64 °FSunny.6 mph83%29.88 "Hg10 mi
6:50 am64 °FSunny.9 mph94%29.84 "Hg10 mi
6:35 am68 °FFog.7 mph95%29.83 "Hg3 mi
6:15 am70 °FFog.5 mph94%29.82 "Hg4 mi
5:55 am71 °FFog.6 mph95%29.82 "Hg4 mi
5:35 am72 °FFog.3 mph95%29.80 "Hg3 mi
5:15 am72 °FFog.6 mph94%29.78 "Hg3 mi
4:55 am73 °FFog.5 mph94%29.77 "Hg3 mi
4:35 am73 °FFog.8 mph94%29.77 "Hg3 mi
4:15 am74 °FFog.7 mph94%29.77 "Hg4 mi
3:55 am74 °FFog.8 mph94%29.75 "Hg4 mi
3:35 am75 °FFog.9 mph94%29.75 "Hg4 mi
3:15 am75 °FFog.8 mph94%29.75 "Hg4 mi
2:55 am75 °FFog.9 mph94%29.74 "Hg3 mi
2:35 am75 °FFog.9 mph94%29.74 "Hg4 mi
2:15 am76 °FFog.8 mph95%29.74 "Hg3 mi
1:55 am76 °FFog.7 mph94%29.73 "Hg3 mi
1:35 am75 °FFog.8 mph95%29.72 "Hg3 mi
1:15 am75 °FFog.8 mph95%29.72 "Hg3 mi
12:55 am76 °FFog.10 mph96%29.71 "Hg3 mi
12:35 am75 °FFog.9 mph95%29.71 "Hg2 mi
12:15 am75 °FFog.7 mph95%29.72 "Hg2 mi
11:55 pm
Sat, May 18
75 °FFog.9 mph95%29.72 "Hg2 mi
11:35 pm74 °FFog.5 mph96%29.72 "Hg2 mi
11:15 pm73 °FFog.8 mph96%29.71 "Hg3 mi
10:55 pm73 °FFog.5 mph96%29.72 "Hg3 mi
10:35 pm71 °FFog.3 mph96%29.71 "Hg2 mi
10:15 pm72 °FFog.No wind93%29.70 "Hg3 mi
9:55 pm72 °FFog.No wind93%29.70 "Hg3 mi
9:35 pm74 °FFog.No wind91%29.69 "Hg5 mi
9:15 pm74 °FPassing clouds.No wind91%29.69 "Hg7 mi
8:55 pm74 °FFog.3 mph89%29.68 "Hg5 mi
8:35 pm75 °FFog.12 mph89%29.67 "Hg4 mi
8:15 pm74 °FFog.7 mph89%29.68 "Hg4 mi
7:55 pm75 °FFog.6 mph87%29.66 "Hg4 mi
6:52 pm73 °FSunny.8 mph83%29.65 "Hg7 mi
5:52 pm73 °FSunny.6 mph89%29.65 "Hg7 mi
4:49 pm72 °FPassing clouds.3 mph94%29.65 "Hg7 mi
3:55 pm72 °FScattered clouds.No wind88%29.65 "Hg7 mi
2:52 pm70 °FPartly sunny.6 mph88%29.66 "Hg7 mi
1:51 pm68 °FThunderstorms. Mostly cloudy.18 mph88%29.69 "Hg3 mi
12:50 pm73 °FThunderstorms. Mostly cloudy.17 mph78%29.75 "HgN/A
11:50 am75 °FFog.13 mph89%29.72 "Hg5 mi
Weather by CustomWeather, © 2019

See weather overview